Regional Weather Roundup
Issued by NWS

Home | Current Version | Previous Version | Graphics & Text | Print | Product List | Glossary On
Versions: 1 2 3 4 5 6 7 8 9 10 11 12 13 14 15 16 17 18 19 20 21 22 23 24 25 26 27 28 29 30 31 32 33 34 35 36 37 38 39 40 41 42 43 44 45 46 47 48 49 50
000
ASUS43 KFSD 180110
RWRSD

WEATHER ROUNDUP FOR SOUTH DAKOTA
NATIONAL WEATHER SERVICE SIOUX FALLS SD
800 PM CDT THU APR 17 2014

NOTE: "FAIR" INDICATES FEW OR NO CLOUDS BELOW 12,000 FEET WITH NO
SIGNIFICANT WEATHER AND/OR OBSTRUCTIONS TO VISIBILITY.


SDZ001>005-009-010-012>017-180200-
NORTHWEST AND NORTH CENTRAL SOUTH DAKOTA

CITY           SKY/WX    TMP DP  RH WIND       PRES   REMARKS
BUFFALO          N/A     49  31  49 SE23      29.89F
FAITH            N/A     44  30  57 SE18      30.03F
MOBRIDGE       MOCLDY    42  24  49 S14       30.12F
$$

SDZ012>016-024>037-041>051-057-063-072>074-180200-
SOUTHWEST AND SOUTH CENTRAL SOUTH DAKOTA

CITY           SKY/WX    TMP DP  RH WIND       PRES   REMARKS
RAPID CTY ARPT CLEAR     51  36  56 SE15      29.96F
PIERRE         CLEAR     42  25  50 SE15      30.11F
CUSTER         CLEAR     44  34  67 VRB7      29.97F
ELLSWORTH AFB  CLEAR     51  37  58 SE16      29.95F
PHILIP         CLEAR     46  30  53 E14       30.04F
PINE RIDGE     CLEAR     48  35  60 S8        30.00F
SPEARFISH      FAIR      50  36  57 E13       29.92F
WINNER         FAIR      45  25  45 E16       30.13
$$

SDZ004>011-016>023-039-040-180200-
NORTHEAST SOUTH DAKOTA

CITY           SKY/WX    TMP DP  RH WIND       PRES   REMARKS
ABERDEEN       PTCLDY    40  22  48 S9        30.23F
WATERTOWN      PTCLDY    38  16  40 CALM      30.24F
SISSETON         N/A     38  24  57 S8        30.25F
$$

SDZ017-020-022-023-036>040-048>070-180200-
SOUTHEAST SOUTH DAKOTA

CITY           SKY/WX    TMP DP  RH WIND       PRES   REMARKS
SIOUX FALLS    MOCLDY    41  24  51 NE9       30.25F
HURON          CLOUDY    43  22  43 SE5       30.23S
CHAMBERLAIN      N/A     44  26  49 SE14      30.17F
MITCHELL       CLOUDY    46  23  40 E8        30.23F
YANKTON        MOCLDY    46  23  39 E6        30.24F
$$

ABBREVIATIONS USED IN REMARKS
   TC - TEMPERATURE IN CELSIUS
  WCI - WIND CHILL INDEX
   HX - HEAT INDEX
  VSB - VISIBILITY




USA.gov is the U.S. government's official web portal to all federal, state and local government web resources and services.